Location: Unspecified
(0.0000°N, 0.0000°E)
Time: 13:15:00
(UTC+01:00)

Iridium 47 - Visible Passes

Search period start: 30 October 2014 00:00
Search period end: 09 November 2014 00:00
Orbit: 776 x 779 km, 86.4° (Epoch: 29 October)

Date Brightness Start Highest point End Pass type
(mag) Time Alt. Az. Time Alt. Az. Time Alt. Az.
30 Oct 6.1 05:47:45 10° NNE 05:52:44 48° E 05:57:44 10° SSE visible
31 Oct 7.6 05:15:22 10° NE 05:19:17 22° E 05:23:12 10° SE visible
02 Nov 5.2 05:47:35 10° N 05:52:46 79° E 05:57:59 10° S visible
03 Nov 6.7 05:14:37 10° NNE 05:19:18 35° E 05:24:00 10° SSE visible
04 Nov 7.9 04:42:48 10° NE 04:45:51 16° E 04:48:54 10° SE visible
05 Nov 5.0 05:47:40 10° N 05:52:47 64° W 05:57:57 10° S visible
06 Nov 5.6 05:14:14 10° NNE 05:19:20 57° E 05:24:26 10° SSE visible
07 Nov 7.1 04:41:38 10° NE 04:45:52 26° E 04:50:06 10° SE visible
08 Nov 8.0 04:11:00 10° ENE 04:12:24 11° E 04:13:49 10° ESE visible
08 Nov 5.5 05:48:01 10° NNW 05:52:49 39° W 05:57:38 10° SSW visible
